Weather History for PHSF - September, 2013

Change the Weather History Date:

Wednesday, September 18, 2013

  Actual Average Record
Temperature  
Mean Temperature 58 °F -  
Max Temperature 70 °F 69 °F 75 °F (2003)
Min Temperature 45 °F 49 °F 44 °F (1998)
Degree Days  
Heating Degree Days 8    
Growing Degree Days 8 (Base 50)    
Moisture  
Dew Point 47 °F    
Average Humidity 68    
Maximum Humidity 89    
Minimum Humidity 25    
Precipitation  
Precipitation 0.00 in - - ()
Sea Level Pressure  
Sea Level Pressure 30.31 in    
Wind  
Wind Speed 6 mph (SSE)    
Max Wind Speed 16 mph    
Max Gust Speed 26 mph    
Visibility 12 miles    
Events      
Averages and records for this station are not official NWS values.
T = Trace of Precipitation, MM = Missing Value Source: NWS Daily Summary

Daily Weather History Graph

Daily Weather History Graph

Search for Another Location

Airport or City:

Trip Planner

Search our weather history database for the weather conditions in past years. The results will help you decide how hot, cold, wet, or windy it might be!

Date:

Astronomy

Sep. 18, 2013 Rise Set
Actual Time 6:10 AM HST 6:21 PM HST
Civil Twilight 5:48 AM HST 6:43 PM HST
Nautical Twilight 5:22 AM HST 7:09 PM HST
Astronomical Twilight 4:57 AM HST 7:34 PM HST
Moon 5:55 PM HST (9/18) 5:25 AM HST (9/18)
Length of Visible Light 12h 55m
Length of Day
12h 11m
Full, 100% of the Moon is Illuminated
Sep 18
Full
Sep 19
Full
Sep 26
Last Quarter
Oct 4
New
Oct 11
First Quarter

Hourly Weather History & Observations

Time (HST) Temp. Windchill Dew Point Humidity Pressure Visibility Wind Dir Wind Speed Gust Speed Precip Events Conditions
12:56 AM 48.2 °F - 41.9 °F 79% 30.29 in 12.0 mi NNE 2.3 mph - N/A   Clear
1:56 AM 50.7 °F - 42.6 °F 74% 30.27 in 12.0 mi North 3.5 mph 15.0 mph N/A   Partly Cloudy
2:56 AM 48.2 °F - 41.0 °F 76% 30.26 in 12.0 mi ESE 3.5 mph - N/A   Clear
3:56 AM 46.4 °F 44.3 °F 39.6 °F 77% 30.27 in 12.0 mi ESE 4.6 mph - N/A   Clear
4:56 AM 45.1 °F 43.7 °F 37.9 °F 76% 30.27 in 12.0 mi ESE 3.5 mph - N/A   Clear
5:56 AM 45.7 °F 44.4 °F 39.4 °F 79% 30.29 in 8.0 mi North 3.5 mph - N/A   Clear
6:56 AM 47.1 °F - 40.6 °F 78% 30.30 in 12.0 mi West 4.6 mph - N/A   Clear
7:56 AM 56.3 °F - 41.4 °F 57% 30.31 in 10.0 mi West 5.8 mph - N/A   Clear
8:56 AM 64.9 °F - 28.6 °F 25% 30.32 in 12.0 mi SSE 6.9 mph 13.8 mph N/A   Clear
9:56 AM 64.0 °F - 41.2 °F 43% 30.34 in 12.0 mi SSW 16.1 mph 24.2 mph N/A   Clear
10:27 AM 66.2 °F - 41.0 °F 40% 30.34 in 12.0 mi SSE 15.0 mph 26.5 mph N/A   Clear
10:56 AM 66.2 °F - 41.9 °F 41% 30.34 in 12.0 mi SE 12.7 mph 21.9 mph N/A   Clear
10:58 AM 66.2 °F - 41.0 °F 40% 30.34 in 12.0 mi South 11.5 mph 19.6 mph N/A   Clear
11:12 AM 68.0 °F - 41.0 °F 37% 30.33 in 12.0 mi SSE 12.7 mph 17.3 mph N/A   Partly Cloudy
11:57 AM 69.1 °F - 45.0 °F 42% 30.32 in 12.0 mi SSE 9.2 mph 16.1 mph N/A   Clear
12:56 PM 70.3 °F - 45.5 °F 41% 30.30 in 12.0 mi SW 9.2 mph 16.1 mph N/A   Partly Cloudy
1:56 PM 67.6 °F - 51.6 °F 56% 30.29 in 12.0 mi SW 6.9 mph 13.8 mph N/A   Mostly Cloudy
2:56 PM 67.1 °F - 52.3 °F 59% 30.28 in 12.0 mi WSW 11.5 mph 18.4 mph N/A   Mostly Cloudy
3:41 PM 64.4 °F - 53.6 °F 68% 30.29 in 12.0 mi South 9.2 mph - N/A   Overcast
3:56 PM 62.4 °F - 52.9 °F 71% 30.29 in 12.0 mi SSE 8.1 mph 16.1 mph N/A   Overcast
4:56 PM 60.3 °F - 53.1 °F 77% 30.29 in 12.0 mi SE 6.9 mph - N/A   Overcast
5:11 PM 60.8 °F - 53.6 °F 77% 30.29 in 12.0 mi SE 5.8 mph - N/A   Mostly Cloudy
5:53 PM 59.0 °F - 51.8 °F 77% 30.30 in 12.0 mi SE 6.9 mph - N/A   Overcast
5:56 PM 59.2 °F - 52.3 °F 78% 30.30 in 12.0 mi SSE 5.8 mph - N/A   Overcast
6:21 PM 59.0 °F - 51.8 °F 77% 30.30 in 11.0 mi SE 4.6 mph - N/A   Mostly Cloudy
6:51 PM 57.2 °F - 51.8 °F 82% 30.31 in 12.0 mi SSE 5.8 mph - N/A   Mostly Cloudy
6:56 PM 58.1 °F - 52.5 °F 82% 30.31 in 12.0 mi South 3.5 mph - N/A   Mostly Cloudy
7:11 PM 57.2 °F - 51.8 °F 82% 30.31 in 12.0 mi ESE 3.5 mph - N/A   Scattered Clouds
7:32 PM 57.2 °F - 53.6 °F 88% 30.32 in 12.0 mi ESE 4.6 mph - N/A   Mostly Cloudy
7:56 PM 57.7 °F - 52.5 °F 83% 30.32 in 10.0 mi SSE 3.5 mph - N/A   Overcast
8:21 PM 57.2 °F - 51.8 °F 82% 30.32 in 10.0 mi SE 5.8 mph - N/A   Scattered Clouds
8:56 PM 54.1 °F - 50.9 °F 89% 30.34 in 12.0 mi ESE 5.8 mph - N/A   Clear
9:56 PM 52.5 °F - 48.0 °F 85% 30.34 in 12.0 mi SE 8.1 mph - N/A   Clear
10:56 PM 51.8 °F - 47.7 °F 86% 30.34 in 12.0 mi ESE 6.9 mph - N/A   Clear
11:56 PM 51.1 °F - 47.5 °F 87% 30.32 in 12.0 mi ESE 5.8 mph - N/A   Clear